A2SWK MYNN-MYAB

Flight info

Callsign A2SWK
Flight time 0h 25m
Altitude 8000
Route FREDY2 FREDY
Aircraft K100/L-SBDGRY/S

Departure

Time 2026-05-07 23:58
Airport Lynden Pindling International Airport (MYNN)

Arrival

Time 2026-05-08 00:23
Airport Clarence A. Bain Airport (MYAB)
Time Latitude Longitude Altitude Speed Heading
2026-05-07 23:52 25.04141 -77.46035 8 ft 0 kts 104°
2026-05-07 23:53 25.04145 -77.46027 8 ft 3 kts 39°
2026-05-07 23:53 25.04182 -77.46025 8 ft 8 kts 340°
2026-05-07 23:53 25.04217 -77.46074 8 ft 10 kts 276°
2026-05-07 23:53 25.04191 -77.46160 8 ft 14 kts 249°
2026-05-07 23:54 25.04232 -77.46253 8 ft 16 kts 316°
2026-05-07 23:54 25.04320 -77.46346 8 ft 19 kts 316°
2026-05-07 23:54 25.04347 -77.46377 8 ft 0 kts 313°
2026-05-07 23:54 25.04355 -77.46387 8 ft 4 kts 313°
2026-05-07 23:55 25.04387 -77.46424 8 ft 9 kts 313°
2026-05-07 23:55 25.04440 -77.46482 8 ft 12 kts 316°
2026-05-07 23:55 25.04504 -77.46555 8 ft 15 kts 315°
2026-05-07 23:55 25.04584 -77.46642 9 ft 17 kts 314°
2026-05-07 23:56 25.04677 -77.46744 9 ft 20 kts 314°
2026-05-07 23:56 25.04774 -77.46846 9 ft 19 kts 316°
2026-05-07 23:56 25.04797 -77.46970 9 ft 18 kts 259°
2026-05-07 23:56 25.04727 -77.47054 10 ft 19 kts 139°
2026-05-07 23:57 25.04702 -77.47025 10 ft 3 kts 134°
2026-05-07 23:57 25.04505 -77.46807 10 ft 80 kts 135°
2026-05-07 23:57 25.04045 -77.46279 206 ft 104 kts 133°
2026-05-07 23:57 25.03497 -77.45666 423 ft 123 kts 137°
2026-05-07 23:58 25.02820 -77.44966 639 ft 138 kts 134°
2026-05-07 23:58 25.02187 -77.44213 1107 ft 127 kts 136°
2026-05-07 23:58 25.01687 -77.43520 1725 ft 105 kts 127°
2026-05-07 23:58 25.01174 -77.42992 2215 ft 98 kts 142°
2026-05-07 23:59 25.00729 -77.42363 2438 ft 118 kts 122°
2026-05-07 23:59 25.00183 -77.41498 2318 ft 153 kts 130°
2026-05-07 23:59 24.99289 -77.40712 1939 ft 176 kts 157°
2026-05-07 23:59 24.98116 -77.40458 1888 ft 169 kts 183°
2026-05-08 00:00 24.97009 -77.40848 1904 ft 166 kts 206°
2026-05-08 00:00 24.96025 -77.41514 1970 ft 164 kts 211°
2026-05-08 00:00 24.95081 -77.42166 2186 ft 158 kts 206°
2026-05-08 00:00 24.94145 -77.42763 2406 ft 152 kts 209°
2026-05-08 00:01 24.93252 -77.43388 2469 ft 159 kts 213°
2026-05-08 00:01 24.92328 -77.44138 2408 ft 166 kts 217°
2026-05-08 00:01 24.91449 -77.44932 2567 ft 161 kts 219°
2026-05-08 00:01 24.90575 -77.45741 2527 ft 168 kts 219°
2026-05-08 00:02 24.89677 -77.46509 2713 ft 161 kts 212°
2026-05-08 00:02 24.88709 -77.47025 3060 ft 147 kts 195°
2026-05-08 00:02 24.87781 -77.47347 3464 ft 137 kts 211°
2026-05-08 00:02 24.86988 -77.47906 3832 ft 138 kts 216°
2026-05-08 00:03 24.86179 -77.48458 4164 ft 139 kts 212°
2026-05-08 00:03 24.85325 -77.49010 4401 ft 142 kts 213°
2026-05-08 00:03 24.84491 -77.49561 4773 ft 138 kts 214°
2026-05-08 00:03 24.83687 -77.50099 5192 ft 133 kts 214°
2026-05-08 00:04 24.82909 -77.50575 5718 ft 122 kts 214°
2026-05-08 00:04 24.82169 -77.51101 5980 ft 136 kts 216°
2026-05-08 00:04 24.81347 -77.51678 6208 ft 144 kts 216°
2026-05-08 00:04 24.80480 -77.52333 6274 ft 156 kts 218°
2026-05-08 00:05 24.79591 -77.53012 6436 ft 155 kts 217°
2026-05-08 00:05 24.78691 -77.53589 6782 ft 147 kts 211°
2026-05-08 00:05 24.77766 -77.54068 6975 ft 153 kts 210°
2026-05-08 00:05 24.76795 -77.54711 6883 ft 167 kts 215°
2026-05-08 00:06 24.75818 -77.55405 6881 ft 170 kts 214°
2026-05-08 00:06 24.74810 -77.56060 6979 ft 165 kts 211°
2026-05-08 00:06 24.73790 -77.56709 6896 ft 173 kts 213°
2026-05-08 00:06 24.72753 -77.57404 6845 ft 173 kts 212°
2026-05-08 00:07 24.71747 -77.58078 6951 ft 167 kts 214°
2026-05-08 00:07 24.70741 -77.58746 6939 ft 171 kts 212°
2026-05-08 00:07 24.69699 -77.59400 6915 ft 173 kts 211°
2026-05-08 00:07 24.68655 -77.60075 6901 ft 173 kts 213°
2026-05-08 00:08 24.67632 -77.60769 6922 ft 173 kts 212°
2026-05-08 00:08 24.66588 -77.61488 6750 ft 182 kts 214°
2026-05-08 00:08 24.65487 -77.62257 6271 ft 196 kts 211°
2026-05-08 00:08 24.64272 -77.62957 5850 ft 190 kts 208°
2026-05-08 00:09 24.63092 -77.63646 5140 ft 193 kts 210°
2026-05-08 00:09 24.61934 -77.64342 4642 ft 186 kts 210°
2026-05-08 00:09 24.60821 -77.65024 4251 ft 179 kts 211°
2026-05-08 00:09 24.59727 -77.65715 3774 ft 181 kts 211°
2026-05-08 00:10 24.58649 -77.66414 3438 ft 177 kts 214°
2026-05-08 00:10 24.57612 -77.67122 3030 ft 179 kts 213°
2026-05-08 00:10 24.56528 -77.67844 2539 ft 180 kts 210°
2026-05-08 00:10 24.55466 -77.68507 2112 ft 177 kts 213°
2026-05-08 00:11 24.54432 -77.69240 1735 ft 175 kts 215°
2026-05-08 00:11 24.53444 -77.69977 1521 ft 167 kts 216°
2026-05-08 00:11 24.52480 -77.70683 1296 ft 165 kts 212°
2026-05-08 00:11 24.51559 -77.71295 1386 ft 146 kts 212°
2026-05-08 00:12 24.50686 -77.71841 1352 ft 144 kts 210°
2026-05-08 00:12 24.49799 -77.72329 1343 ft 141 kts 206°
2026-05-08 00:12 24.48953 -77.72821 1383 ft 136 kts 215°
2026-05-08 00:12 24.48200 -77.73439 1398 ft 136 kts 216°
2026-05-08 00:13 24.47406 -77.74034 1354 ft 139 kts 213°
2026-05-08 00:13 24.46575 -77.74565 1372 ft 137 kts 205°
2026-05-08 00:13 24.45750 -77.75022 1487 ft 128 kts 207°
2026-05-08 00:13 24.44958 -77.75453 1516 ft 132 kts 216°
2026-05-08 00:14 24.44182 -77.76083 1407 ft 140 kts 212°
2026-05-08 00:14 24.43355 -77.76659 1360 ft 141 kts 213°
2026-05-08 00:14 24.42530 -77.77221 1369 ft 138 kts 212°
2026-05-08 00:14 24.41714 -77.77766 1403 ft 135 kts 209°
2026-05-08 00:15 24.40887 -77.78260 1426 ft 135 kts 209°
2026-05-08 00:15 24.40066 -77.78754 1423 ft 136 kts 210°
2026-05-08 00:15 24.39240 -77.79267 1434 ft 136 kts 210°
2026-05-08 00:15 24.38431 -77.79750 1505 ft 132 kts 208°
2026-05-08 00:16 24.37622 -77.80202 1605 ft 128 kts 206°
2026-05-08 00:16 24.36820 -77.80601 1725 ft 125 kts 203°
2026-05-08 00:16 24.35994 -77.80986 1677 ft 136 kts 202°
2026-05-08 00:16 24.35097 -77.81397 1586 ft 142 kts 202°
2026-05-08 00:17 24.34133 -77.81719 1492 ft 147 kts 194°
2026-05-08 00:17 24.33092 -77.81978 1453 ft 156 kts 193°
2026-05-08 00:17 24.32395 -77.82176 1492 ft 156 kts 195°
2026-05-08 00:17 24.30992 -77.82571 1546 ft 158 kts 192°
2026-05-08 00:18 24.29911 -77.82811 1549 ft 160 kts 192°
2026-05-08 00:18 24.28800 -77.82972 1520 ft 162 kts 177°
2026-05-08 00:18 24.27695 -77.82692 1468 ft 164 kts 162°
2026-05-08 00:18 24.26732 -77.82023 1176 ft 176 kts 122°
2026-05-08 00:19 24.26561 -77.81153 1011 ft 175 kts 83°
2026-05-08 00:19 24.26902 -77.79885 807 ft 167 kts 71°
2026-05-08 00:19 24.27171 -77.78925 1038 ft 103 kts 71°
2026-05-08 00:19 24.27405 -77.78229 1144 ft 97 kts 72°
2026-05-08 00:20 24.27599 -77.77516 1210 ft 102 kts 75°
2026-05-08 00:20 24.27757 -77.76734 1208 ft 108 kts 79°
2026-05-08 00:20 24.27886 -77.75911 1183 ft 110 kts 80°
2026-05-08 00:20 24.28022 -77.75067 1084 ft 113 kts 81°
2026-05-08 00:21 24.28142 -77.74221 967 ft 112 kts 82°
2026-05-08 00:21 24.28245 -77.73375 797 ft 109 kts 83°
2026-05-08 00:21 24.28337 -77.72576 687 ft 105 kts 85°
2026-05-08 00:21 24.28415 -77.71767 520 ft 106 kts 83°
2026-05-08 00:22 24.28511 -77.70965 358 ft 106 kts 84°
2026-05-08 00:22 24.28583 -77.70155 179 ft 104 kts 85°
2026-05-08 00:22 24.28659 -77.69426 65 ft 87 kts 85°
2026-05-08 00:22 24.28724 -77.68881 12 ft 54 kts 85°
2026-05-08 00:23 24.28812 -77.68731 11 ft 0 kts 40°
2026-05-08 00:23 24.28813 -77.68731 11 ft 0 kts 40°